GEESAT-3 05

Last updated on Sun Oct 06 2024 00:02:04 GMT+0000 (Coordinated Universal Time)

1 61015U 24159E 24279.56242012 .00021839 00000+0 21320-2 0 9992 2 61015 50.0027 99.2374 0023541 256.0263 103.8061 14.92086269 4440
UTC large
Height (km)
Speed (km/s)
/
Latitude / Longitude
Inclination (degrees)
Orbital Period (minutes)
Azimuth
Elevation
Range (km)
Doppler Factor

Next 0 passes for location: London (51.5072 / 0.1276)

Sorry there are no passes over London.